| time (UTC) | temp C | wind direction | speed KPH | gust KPH | rain 1hr cm | rain 24hr cm | rain mn cm | humidity % | barometer mb |
| 20260507075817 | 9 | 309 | 1.6 | 8.0 | 0.00 | 1.04 | 0.00 | 73 | 1009.5 |
| 20260507075315 | 9 | 279 | 3.2 | 9.7 | 0.00 | 1.04 | 0.00 | 74 | 1009.4 |
| 20260507075049 | 9 | 336 | 4.8 | 9.7 | 0.00 | 1.04 | 0.00 | 75 | 1009.5 |
| 20260507074322 | 9 | 211 | 1.6 | 12.9 | 0.00 | 1.04 | 0.00 | 76 | 1009.5 |
| 20260507073815 | 9 | 16 | 1.6 | 12.9 | 0.00 | 1.04 | 0.00 | 75 | 1009.5 |
| 20260507073317 | 9 | 267 | 3.2 | 9.7 | 0.00 | 1.04 | 0.00 | 77 | 1009.6 |
| 20260507073046 | 10 | 181 | 3.2 | 11.3 | 0.00 | 1.04 | 0.00 | 77 | 1009.4 |
| 20260507072528 | 10 | 242 | 4.8 | 11.3 | 0.00 | 1.04 | 0.00 | 79 | 1009.6 |
| 20260507071806 | 10 | 226 | 3.2 | 8.0 | 0.00 | 1.04 | 0.00 | 79 | 1009.6 |
| 20260507071304 | 10 | 186 | 3.2 | 8.0 | 0.00 | 1.04 | 0.00 | 82 | 1009.5 |
| 20260507070805 | 10 | 215 | 1.6 | 4.8 | 0.00 | 1.04 | 0.00 | 82 | 1009.6 |
| 20260507070302 | 10 | 310 | 1.6 | 4.8 | 0.00 | 1.04 | 0.00 | 83 | 1009.5 |
| 20260507065800 | 10 | 213 | 1.6 | 6.4 | 0.00 | 1.04 | 0.00 | 83 | 1009.4 |
| 20260507065257 | 10 | 352 | 3.2 | 8.0 | 0.00 | 1.04 | 0.00 | 84 | 1009.6 |
| 20260507064758 | 10 | 199 | 4.8 | 8.0 | 0.00 | 1.04 | 0.00 | 85 | 1009.5 |
| 20260507064516 | 10 | 286 | 0.0 | 9.7 | 0.00 | 1.04 | 0.00 | 85 | 1009.6 |
| 20260507063755 | 10 | 267 | 3.2 | 9.7 | 0.00 | 1.04 | 0.00 | 86 | 1009.6 |
| 20260507063255 | 10 | 286 | 0.0 | 11.3 | 0.00 | 1.04 | 0.00 | 86 | 1009.5 |
| 20260507062751 | 10 | 267 | 4.8 | 11.3 | 0.00 | 1.04 | 0.00 | 86 | 1009.5 |
| 20260507062250 | 10 | 251 | 3.2 | 8.0 | 0.00 | 1.04 | 0.00 | 86 | 1009.6 |
| 20260507061752 | 10 | 255 | 3.2 | 4.8 | 0.00 | 1.04 | 0.00 | 87 | 1009.7 |
| 20260507061528 | 10 | 224 | 1.6 | 8.0 | 0.00 | 1.04 | 0.00 | 86 | 1009.7 |
| 20260507061014 | 10 | 181 | 3.2 | 8.0 | 0.00 | 1.04 | 0.00 | 86 | 1009.6 |
| 20260507060245 | 10 | 300 | 3.2 | 8.0 | 0.00 | 1.04 | 0.00 | 86 | 1009.7 |
| 20260507055743 | 10 | 227 | 1.6 | 4.8 | 0.00 | 1.04 | 0.00 | 86 | 1009.6 |
| 20260507055510 | 10 | 281 | 0.0 | 6.4 | 0.00 | 1.04 | 0.00 | 86 | 1009.8 |
| 20260507054731 | 10 | 248 | 1.6 | 6.4 | 0.00 | 1.04 | 0.00 | 86 | 1009.8 |
| 20260507054231 | 10 | 221 | 1.6 | 4.8 | 0.00 | 1.04 | 0.00 | 85 | 1009.6 |
| 20260507053951 | 10 | 188 | 1.6 | 6.4 | 0.00 | 1.04 | 0.00 | 84 | 1009.6 |
| 20260507053450 | 10 | 230 | 3.2 | 6.4 | 0.00 | 1.04 | 0.00 | 83 | 1009.8 |
| 20260507052725 | 10 | 237 | 0.0 | 4.8 | 0.00 | 1.04 | 0.00 | 83 | 1009.7 |
| 20260507052221 | 10 | 201 | 3.2 | 6.4 | 0.00 | 1.04 | 0.00 | 83 | 1009.8 |
| 20260507051715 | 10 | 246 | 1.6 | 6.4 | 0.00 | 1.04 | 0.00 | 83 | 1009.6 |
| 20260507051218 | 10 | 78 | 0.0 | 11.3 | 0.00 | 1.04 | 0.00 | 83 | 1009.8 |
| 20260507050716 | 10 | 254 | 1.6 | 11.3 | 0.00 | 1.04 | 0.00 | 82 | 1009.8 |
| 20260507050214 | 10 | 302 | 3.2 | 4.8 | 0.00 | 1.04 | 0.00 | 82 | 1009.8 |
| 20260507045711 | 10 | 177 | 3.2 | 6.4 | 0.00 | 1.04 | 0.00 | 82 | 1009.7 |
| 20260507045436 | 10 | 355 | 1.6 | 6.4 | 0.00 | 1.04 | 0.00 | 82 | 1009.6 |
| 20260507044706 | 10 | 219 | 3.2 | 6.4 | 0.00 | 1.04 | 0.00 | 83 | 1009.9 |
| 20260507044206 | 10 | 261 | 0.0 | 6.4 | 0.00 | 1.04 | 0.00 | 83 | 1009.9 |
| 20260507043707 | 10 | 239 | 3.2 | 6.4 | 0.00 | 1.04 | 0.00 | 83 | 1009.9 |
| 20260507043429 | 10 | 250 | 3.2 | 4.8 | 0.00 | 1.04 | 0.00 | 83 | 1009.8 |
| 20260507042706 | 10 | 221 | 1.6 | 4.8 | 0.00 | 1.04 | 0.00 | 83 | 1009.6 |
| 20260507042206 | 10 | 270 | 0.0 | 4.8 | 0.00 | 1.04 | 0.00 | 83 | 1009.8 |
| 20260507041707 | 10 | 237 | 1.6 | 8.0 | 0.00 | 1.04 | 0.00 | 83 | 1009.9 |
| 20260507041438 | 10 | 302 | 3.2 | 12.9 | 0.00 | 1.04 | 0.00 | 83 | 1009.9 |
| 20260507040706 | 10 | 231 | 1.6 | 12.9 | 0.00 | 1.04 | 0.00 | 83 | 1009.7 |
| 20260507040206 | 10 | 188 | 4.8 | 8.0 | 0.00 | 1.04 | 0.00 | 84 | 1009.6 |
| 20260507035709 | 10 | 269 | 1.6 | 6.4 | 0.00 | 1.04 | 1.04 | 84 | 1009.4 |
| 20260507035208 | 10 | 299 | 1.6 | 6.4 | 0.00 | 1.04 | 1.04 | 84 | 1009.3 |
| 20260507034706 | 10 | 185 | 0.0 | 9.7 | 0.00 | 1.04 | 1.04 | 84 | 1009.1 |
| 20260507034208 | 10 | 210 | 6.4 | 9.7 | 0.00 | 1.04 | 1.04 | 84 | 1009.1 |
| 20260507033707 | 10 | 236 | 1.6 | 8.0 | 0.00 | 1.04 | 1.04 | 84 | 1009.2 |
| 20260507033206 | 10 | 53 | 3.2 | 9.7 | 0.00 | 1.04 | 1.04 | 84 | 1009.2 |
| 20260507032931 | 10 | 29 | 4.8 | 11.3 | 0.00 | 1.04 | 1.04 | 84 | 1009.4 |
| 20260507032207 | 10 | 46 | 3.2 | 11.3 | 0.00 | 1.04 | 1.04 | 84 | 1009.7 |
| 20260507031936 | 10 | 90 | 3.2 | 9.7 | 0.00 | 1.04 | 1.04 | 84 | 1009.7 |
| 20260507031206 | 11 | 63 | 1.6 | 11.3 | 0.00 | 1.04 | 1.04 | 84 | 1009.7 |
| 20260507030712 | 11 | 207 | 3.2 | 11.3 | 0.00 | 1.04 | 1.04 | 85 | 1009.5 |
| 20260507030201 | 11 | 38 | 4.8 | 6.4 | 0.00 | 1.04 | 1.04 | 85 | 1009.6 |
| 20260507025704 | 11 | 5 | 3.2 | 12.9 | 0.00 | 1.04 | 1.04 | 85 | 1009.5 |
| 20260507025201 | 11 | 288 | 4.8 | 20.9 | 0.00 | 1.04 | 1.04 | 84 | 1009.4 |
| 20260507024930 | 11 | 344 | 6.4 | 20.9 | 0.00 | 1.04 | 1.04 | 84 | 1009.3 |
| 20260507024201 | 11 | 250 | 6.4 | 11.3 | 0.00 | 1.04 | 1.04 | 85 | 1009.4 |
| 20260507023702 | 11 | 350 | 3.2 | 14.5 | 0.00 | 1.04 | 1.04 | 84 | 1009.3 |
| 20260507023201 | 11 | 51 | 6.4 | 14.5 | 0.00 | 1.04 | 1.04 | 85 | 1009.4 |
| 20260507022700 | 11 | 61 | 4.8 | 12.9 | 0.00 | 1.04 | 1.04 | 85 | 1009.2 |
| 20260507022202 | 11 | 134 | 4.8 | 12.9 | 0.00 | 1.04 | 1.04 | 85 | 1009.3 |
| 20260507021700 | 11 | 11 | 1.6 | 11.3 | 0.00 | 1.04 | 1.04 | 84 | 1009.1 |
| 20260507021217 | 11 | 28 | 3.2 | 12.9 | 0.00 | 1.04 | 1.04 | 84 | 1009.4 |
| 20260507020921 | 11 | 40 | 6.4 | 16.1 | 0.00 | 1.04 | 1.04 | 84 | 1009.4 |
| 20260507020210 | 11 | 329 | 4.8 | 22.5 | 0.00 | 1.04 | 1.04 | 84 | 1009.5 |
| 20260507015700 | 11 | 283 | 6.4 | 22.5 | 0.00 | 1.04 | 1.04 | 84 | 1009.4 |
| 20260507015200 | 11 | 296 | 3.2 | 19.3 | 0.00 | 1.04 | 1.04 | 84 | 1009.4 |
| 20260507014704 | 11 | 5 | 4.8 | 16.1 | 0.00 | 1.04 | 1.04 | 84 | 1009.4 |
| 20260507014201 | 11 | 326 | 4.8 | 11.3 | 0.00 | 1.04 | 1.04 | 84 | 1009.3 |
| 20260507013930 | 12 | 10 | 4.8 | 27.4 | 0.00 | 1.04 | 1.04 | 84 | 1009.4 |
| 20260507013200 | 12 | 57 | 4.8 | 27.4 | 0.00 | 1.04 | 1.04 | 85 | 1009.3 |
| 20260507012700 | 12 | 0 | 8.0 | 22.5 | 0.00 | 1.04 | 1.04 | 86 | 1009.4 |
| 20260507012430 | 12 | 16 | 6.4 | 22.5 | 0.00 | 1.04 | 1.04 | 87 | 1009.3 |
| 20260507011717 | 12 | 329 | 3.2 | 14.5 | 0.00 | 1.04 | 1.04 | 87 | 1009.3 |
| 20260507011201 | 12 | 238 | 6.4 | 25.7 | 0.00 | 1.04 | 1.04 | 88 | 1009.1 |
| 20260507010700 | 12 | 5 | 8.0 | 25.7 | 0.00 | 1.04 | 1.04 | 88 | 1009.0 |
| 20260507010446 | 12 | 318 | 6.4 | 17.7 | 0.00 | 1.04 | 1.04 | 88 | 1009.1 |
| 20260507010430 | 12 | 103 | 3.2 | 14.5 | 0.03 | 1.04 | 1.04 | 88 | 1009.0 |
| 20260507005156 | 13 | 166 | 6.4 | 14.5 | 0.03 | 1.04 | 1.04 | 87 | 1009.1 |
| 20260507004652 | 13 | 288 | 3.2 | 14.5 | 0.03 | 1.04 | 1.04 | 88 | 1008.9 |
| 20260507004428 | 13 | 318 | 4.8 | 14.5 | 0.03 | 1.04 | 1.04 | 88 | 1008.6 |
| 20260507003913 | 13 | 13 | 3.2 | 12.9 | 0.03 | 1.04 | 1.04 | 88 | 1008.5 |
| 20260507003148 | 13 | 42 | 4.8 | 16.1 | 0.03 | 1.04 | 1.04 | 88 | 1008.3 |
| 20260507002651 | 13 | 326 | 3.2 | 16.1 | 0.03 | 1.04 | 1.04 | 88 | 1008.4 |
| 20260507002150 | 13 | 12 | 6.4 | 19.3 | 0.03 | 1.04 | 1.04 | 87 | 1008.3 |
| 20260507001648 | 13 | 290 | 6.4 | 19.3 | 0.03 | 1.04 | 1.04 | 87 | 1008.3 |
| 20260507001147 | 13 | 355 | 4.8 | 25.7 | 0.03 | 1.04 | 1.04 | 87 | 1008.2 |
| 20260507000916 | 13 | 30 | 6.4 | 32.2 | 0.03 | 1.04 | 1.04 | 87 | 1008.2 |
| 20260507000146 | 14 | 344 | 9.7 | 32.2 | 0.03 | 1.04 | 1.04 | 87 | 1007.9 |
| 20260506235645 | 14 | 298 | 8.0 | 16.1 | 0.00 | 1.02 | 1.02 | 87 | 1007.8 |
| 20260506235144 | 15 | 59 | 6.4 | 16.1 | 0.00 | 1.02 | 1.02 | 88 | 1007.4 |
| 20260506234646 | 15 | 63 | 3.2 | 9.7 | 0.00 | 1.02 | 1.02 | 89 | 1007.1 |
| 20260506234146 | 15 | 306 | 3.2 | 9.7 | 0.00 | 1.02 | 1.02 | 90 | 1007.0 |
| 20260506233644 | 15 | 289 | 3.2 | 9.7 | 0.00 | 1.02 | 1.02 | 89 | 1006.9 |
| 20260506233146 | 15 | 312 | 3.2 | 11.3 | 0.00 | 1.02 | 1.02 | 89 | 1006.9 |
| 20260506232643 | 15 | 274 | 3.2 | 11.3 | 0.00 | 1.02 | 1.02 | 88 | 1006.9 |
| 20260506232141 | 16 | 265 | 6.4 | 11.3 | 0.00 | 1.02 | 1.02 | 88 | 1006.9 |
| 20260506231909 | 16 | 241 | 4.8 | 14.5 | 0.00 | 1.02 | 1.02 | 88 | 1006.9 |
| 20260506231140 | 16 | 284 | 6.4 | 14.5 | 0.00 | 1.02 | 1.02 | 88 | 1007.0 |
| 20260506230640 | 16 | 323 | 6.4 | 12.9 | 0.00 | 1.02 | 1.02 | 88 | 1006.9 |
| 20260506230135 | 16 | 288 | 6.4 | 12.9 | 0.00 | 1.02 | 1.02 | 88 | 1006.8 |
| 20260506225633 | 16 | 216 | 6.4 | 12.9 | 0.00 | 1.02 | 1.02 | 89 | 1006.7 |
| 20260506225132 | 16 | 284 | 6.4 | 14.5 | 0.00 | 1.02 | 1.02 | 90 | 1006.6 |
| 20260506224851 | 16 | 278 | 6.4 | 14.5 | 0.00 | 1.02 | 1.02 | 91 | 1006.6 |
| 20260506224132 | 16 | 264 | 3.2 | 9.7 | 0.00 | 1.02 | 1.02 | 92 | 1006.6 |
| 20260506223639 | 16 | 287 | 4.8 | 11.3 | 0.00 | 1.02 | 1.02 | 93 | 1006.7 |
| 20260506223129 | 16 | 278 | 4.8 | 11.3 | 0.00 | 1.02 | 1.02 | 93 | 1006.6 |
| 20260506222633 | 16 | 257 | 4.8 | 11.3 | 0.00 | 1.02 | 1.02 | 93 | 1006.5 |
| 20260506222130 | 16 | 271 | 3.2 | 6.4 | 0.00 | 1.02 | 1.02 | 94 | 1006.6 |
| 20260506221627 | 16 | 269 | 3.2 | 6.4 | 0.03 | 1.02 | 1.02 | 94 | 1006.5 |
| 20260506221126 | 16 | 269 | 1.6 | 6.4 | 0.03 | 1.02 | 1.02 | 94 | 1006.4 |
| 20260506220625 | 16 | 275 | 3.2 | 9.7 | 0.05 | 1.02 | 1.02 | 94 | 1006.2 |
| 20260506220349 | 16 | 253 | 4.8 | 9.7 | 0.05 | 1.02 | 1.02 | 94 | 1006.1 |
| 20260506215620 | 16 | 266 | 3.2 | 4.8 | 0.05 | 1.02 | 1.02 | 94 | 1006.0 |
| 20260506215118 | 16 | 267 | 0.0 | 4.8 | 0.05 | 1.02 | 1.02 | 94 | 1006.2 |
| 20260506214837 | 16 | 263 | 1.6 | 9.7 | 0.05 | 1.02 | 1.02 | 94 | 1006.2 |
| 20260506214116 | 16 | 263 | 1.6 | 9.7 | 0.05 | 1.02 | 1.02 | 94 | 1006.1 |
| 20260506213617 | 16 | 290 | 3.2 | 6.4 | 0.05 | 1.02 | 1.02 | 93 | 1005.9 |
| 20260506213113 | 16 | 290 | 1.6 | 9.7 | 0.05 | 1.02 | 1.02 | 93 | 1005.9 |
| 20260506212613 | 16 | 308 | 1.6 | 9.7 | 0.05 | 1.02 | 1.02 | 93 | 1005.7 |
| 20260506212110 | 16 | 292 | 1.6 | 4.8 | 0.05 | 1.02 | 1.02 | 93 | 1005.7 |
| 20260506211609 | 17 | 283 | 1.6 | 6.4 | 0.03 | 0.99 | 0.99 | 92 | 1005.7 |
| 20260506211108 | 17 | 296 | 3.2 | 6.4 | 0.03 | 0.99 | 0.99 | 91 | 1005.6 |
| 20260506210607 | 17 | 267 | 4.8 | 11.3 | 0.00 | 0.97 | 0.97 | 91 | 1005.5 |
| 20260506210106 | 17 | 255 | 6.4 | 11.3 | 0.00 | 0.97 | 0.97 | 90 | 1005.5 |
| 20260506205605 | 17 | 194 | 3.2 | 6.4 | 0.00 | 0.97 | 0.97 | 89 | 1005.4 |
| 20260506205105 | 17 | 250 | 1.6 | 4.8 | 0.00 | 0.97 | 0.97 | 90 | 1005.3 |
| 20260506204604 | 17 | 265 | 3.2 | 8.0 | 0.00 | 0.97 | 0.97 | 89 | 1005.3 |
| 20260506204101 | 17 | 290 | 4.8 | 9.7 | 0.00 | 0.97 | 0.97 | 90 | 1005.3 |
| 20260506203603 | 17 | 241 | 3.2 | 9.7 | 0.00 | 0.97 | 0.97 | 90 | 1005.4 |
| 20260506203328 | 17 | 259 | 4.8 | 11.3 | 0.00 | 0.97 | 0.97 | 91 | 1005.2 |
| 20260506202559 | 17 | 221 | 3.2 | 11.3 | 0.00 | 0.97 | 0.97 | 91 | 1005.3 |
| 20260506202057 | 17 | 240 | 4.8 | 8.0 | 0.00 | 0.97 | 0.97 | 91 | 1005.2 |
| 20260506201825 | 17 | 207 | 4.8 | 12.9 | 0.00 | 0.97 | 0.97 | 91 | 1005.2 |
| 20260506201057 | 17 | 225 | 6.4 | 12.9 | 0.00 | 0.97 | 0.97 | 92 | 1005.3 |
| 20260506200556 | 17 | 255 | 4.8 | 9.7 | 0.00 | 0.97 | 0.97 | 92 | 1005.3 |
| 20260506200052 | 17 | 229 | 3.2 | 9.7 | 0.00 | 0.97 | 0.97 | 92 | 1005.4 |
| 20260506195554 | 17 | 218 | 4.8 | 9.7 | 0.00 | 0.97 | 0.97 | 93 | 1005.4 |
| 20260506195051 | 17 | 238 | 3.2 | 9.7 | 0.00 | 0.97 | 0.97 | 93 | 1005.5 |
| 20260506194548 | 17 | 290 | 3.2 | 8.0 | 0.00 | 0.97 | 0.97 | 94 | 1005.7 |
| 20260506194324 | 16 | 220 | 3.2 | 8.0 | 0.00 | 0.97 | 0.97 | 93 | 1005.6 |
| 20260506193545 | 16 | 273 | 3.2 | 12.9 | 0.00 | 0.97 | 0.97 | 93 | 1005.6 |
| 20260506193045 | 16 | 269 | 4.8 | 16.1 | 0.00 | 0.97 | 0.97 | 94 | 1005.6 |
| 20260506192546 | 16 | 296 | 4.8 | 16.1 | 0.00 | 0.97 | 0.97 | 94 | 1005.6 |
| 20260506192045 | 16 | 232 | 8.0 | 14.5 | 0.00 | 0.97 | 0.97 | 94 | 1005.7 |
| 20260506191545 | 16 | 236 | 6.4 | 14.5 | 0.00 | 0.97 | 0.97 | 94 | 1005.6 |
| 20260506191049 | 16 | 200 | 8.0 | 17.7 | 0.00 | 0.97 | 0.97 | 94 | 1005.6 |
| 20260506190543 | 16 | 279 | 6.4 | 17.7 | 0.03 | 0.97 | 0.97 | 95 | 1005.8 |
| 20260506190042 | 16 | 244 | 4.8 | 11.3 | 0.03 | 0.97 | 0.97 | 95 | 1005.8 |
| 20260506185541 | 16 | 225 | 4.8 | 12.9 | 0.03 | 0.97 | 0.97 | 95 | 1005.9 |
| 20260506185041 | 16 | 226 | 6.4 | 12.9 | 0.03 | 0.97 | 0.97 | 95 | 1005.9 |
| 20260506184806 | 16 | 190 | 6.4 | 12.9 | 0.03 | 0.97 | 0.97 | 96 | 1005.9 |
| 20260506184040 | 15 | 241 | 3.2 | 9.7 | 0.03 | 0.97 | 0.97 | 96 | 1006.0 |
| 20260506183540 | 15 | 246 | 3.2 | 9.7 | 0.03 | 0.97 | 0.97 | 96 | 1006.0 |
| 20260506183040 | 15 | 233 | 4.8 | 9.7 | 0.03 | 0.97 | 0.97 | 96 | 1006.0 |
| 20260506182540 | 15 | 262 | 4.8 | 9.7 | 0.05 | 0.97 | 0.97 | 96 | 1006.1 |
| 20260506182300 | 15 | 186 | 3.2 | 8.0 | 0.05 | 0.97 | 0.97 | 96 | 1006.0 |
| 20260506181542 | 15 | 192 | 4.8 | 8.0 | 0.05 | 0.97 | 0.97 | 96 | 1006.0 |
| 20260506181038 | 15 | 221 | 3.2 | 8.0 | 0.05 | 0.97 | 0.97 | 96 | 1006.1 |
| 20260506180539 | 15 | 273 | 1.6 | 4.8 | 0.05 | 0.94 | 0.94 | 96 | 1006.2 |
| 20260506180037 | 15 | 284 | 1.6 | 8.0 | 0.05 | 0.94 | 0.94 | 95 | 1006.3 |
| 20260506175537 | 15 | 257 | 6.4 | 8.0 | 0.08 | 0.94 | 0.94 | 95 | 1006.3 |
| 20260506175036 | 15 | 248 | 3.2 | 6.4 | 0.10 | 0.94 | 0.94 | 95 | 1006.2 |
| 20260506174536 | 15 | 275 | 3.2 | 8.0 | 0.10 | 0.94 | 0.94 | 95 | 1006.2 |
| 20260506174038 | 15 | 211 | 4.8 | 8.0 | 0.10 | 0.94 | 0.94 | 95 | 1006.2 |
| 20260506173535 | 15 | 263 | 3.2 | 4.8 | 0.10 | 0.94 | 0.94 | 95 | 1006.2 |
| 20260506173040 | 15 | 298 | 1.6 | 9.7 | 0.10 | 0.94 | 0.94 | 95 | 1006.2 |
| 20260506172541 | 15 | 230 | 6.4 | 9.7 | 0.08 | 0.91 | 0.91 | 94 | 1006.2 |
| 20260506172530 | 15 | 242 | 3.2 | 9.7 | 0.08 | 0.91 | 0.91 | 95 | 1006.2 |
| 20260506171522 | 15 | 276 | 1.6 | 11.3 | 0.08 | 0.91 | 0.91 | 94 | 1006.2 |
| 20260506171021 | 15 | 267 | 4.8 | 14.5 | 0.08 | 0.91 | 0.91 | 94 | 1006.3 |
| 20260506170522 | 15 | 262 | 6.4 | 16.1 | 0.05 | 0.89 | 0.89 | 94 | 1006.2 |
| 20260506170250 | 15 | 220 | 8.0 | 16.1 | 0.05 | 0.89 | 0.89 | 94 | 1006.3 |
| 20260506165518 | 15 | 259 | 4.8 | 16.1 | 0.03 | 0.86 | 0.86 | 93 | 1006.3 |
| 20260506165013 | 15 | 201 | 6.4 | 17.7 | 0.00 | 0.84 | 0.84 | 93 | 1006.4 |
| 20260506164516 | 15 | 256 | 8.0 | 17.7 | 0.00 | 0.84 | 0.84 | 93 | 1006.4 |
| 20260506164011 | 15 | 300 | 3.2 | 17.7 | 0.00 | 0.84 | 0.84 | 93 | 1006.4 |
| 20260506163740 | 15 | 245 | 8.0 | 17.7 | 0.00 | 0.84 | 0.84 | 93 | 1006.4 |
| 20260506163023 | 15 | 254 | 6.4 | 16.1 | 0.00 | 0.84 | 0.84 | 93 | 1006.3 |
| 20260506162507 | 15 | 249 | 4.8 | 16.1 | 0.00 | 0.84 | 0.84 | 93 | 1006.2 |
| 20260506162010 | 15 | 162 | 6.4 | 14.5 | 0.03 | 0.84 | 0.84 | 93 | 1006.3 |
| 20260506161502 | 15 | 261 | 4.8 | 14.5 | 0.03 | 0.84 | 0.84 | 93 | 1006.4 |
| 20260506161235 | 15 | 246 | 9.7 | 14.5 | 0.05 | 0.84 | 0.84 | 93 | 1006.4 |
| 20260506160503 | 15 | 262 | 4.8 | 19.3 | 0.08 | 0.84 | 0.84 | 93 | 1006.4 |
| 20260506160326 | 15 | 231 | 8.0 | 20.9 | 0.10 | 0.84 | 0.84 | 93 | 1006.4 |
| 20260506155735 | 15 | 260 | 6.4 | 20.9 | 0.15 | 0.84 | 0.84 | 93 | 1006.4 |
| 20260506155001 | 15 | 272 | 4.8 | 16.1 | 0.20 | 0.84 | 0.84 | 93 | 1006.3 |
| 20260506154500 | 15 | 192 | 3.2 | 17.7 | 0.23 | 0.84 | 0.84 | 93 | 1006.3 |
| 20260506154003 | 15 | 252 | 9.7 | 17.7 | 0.25 | 0.84 | 0.84 | 93 | 1006.3 |
| 20260506153502 | 15 | 218 | 6.4 | 17.7 | 0.25 | 0.84 | 0.84 | 93 | 1006.1 |
| 20260506153000 | 15 | 202 | 8.0 | 17.7 | 0.25 | 0.84 | 0.84 | 93 | 1006.1 |
| 20260506152459 | 15 | 218 | 8.0 | 17.7 | 0.28 | 0.84 | 0.84 | 93 | 1006.0 |
| 20260506151957 | 15 | 221 | 6.4 | 17.7 | 0.25 | 0.81 | 0.81 | 93 | 1006.0 |
| 20260506151456 | 15 | 190 | 9.7 | 17.7 | 0.28 | 0.81 | 0.81 | 93 | 1006.3 |
| 20260506150956 | 15 | 196 | 4.8 | 14.5 | 0.28 | 0.79 | 0.79 | 93 | 1006.3 |
| 20260506150731 | 15 | 242 | 4.8 | 24.1 | 0.28 | 0.76 | 0.76 | 93 | 1006.3 |
| 20260506145952 | 15 | 213 | 9.7 | 24.1 | 0.28 | 0.74 | 0.74 | 93 | 1006.3 |
| 20260506145721 | 15 | 204 | 4.8 | 16.1 | 0.28 | 0.69 | 0.69 | 93 | 1006.4 |
| 20260506145208 | 15 | 199 | 9.7 | 17.7 | 0.23 | 0.64 | 0.66 | 93 | 1006.7 |
| 20260506144445 | 15 | 248 | 11.3 | 17.7 | 0.23 | 0.61 | 0.61 | 93 | 1006.8 |
| 20260506144422 | 15 | 245 | 8.0 | 17.7 | 0.23 | 0.58 | 0.58 | 93 | 1007.1 |
| 20260506143447 | 15 | 274 | 4.8 | 12.9 | 0.25 | 0.58 | 0.58 | 93 | 1006.9 |
| 20260506142946 | 15 | 283 | 6.4 | 17.7 | 0.28 | 0.58 | 0.58 | 93 | 1006.8 |
| 20260506142449 | 15 | 252 | 6.4 | 17.7 | 0.25 | 0.56 | 0.56 | 93 | 1006.7 |
| 20260506142215 | 15 | 257 | 6.4 | 14.5 | 0.28 | 0.56 | 0.56 | 93 | 1006.5 |
| 20260506141448 | 15 | 199 | 4.8 | 16.1 | 0.25 | 0.53 | 0.53 | 93 | 1006.6 |
| 20260506140949 | 15 | 224 | 6.4 | 11.3 | 0.23 | 0.51 | 0.51 | 93 | 1006.5 |
| 20260506140446 | 15 | 217 | 4.8 | 12.9 | 0.20 | 0.48 | 0.48 | 93 | 1006.5 |
| 20260506135948 | 15 | 231 | 6.4 | 12.9 | 0.18 | 0.46 | 0.46 | 92 | 1006.4 |
| 20260506135446 | 15 | 162 | 4.8 | 11.3 | 0.15 | 0.41 | 0.41 | 93 | 1006.6 |
| 20260506135235 | 15 | 178 | 1.6 | 6.4 | 0.15 | 0.41 | 0.41 | 93 | 1006.7 |
| 20260506134446 | 15 | 254 | 1.6 | 6.4 | 0.15 | 0.38 | 0.38 | 92 | 1006.7 |
| 20260506133948 | 15 | 162 | 0.0 | 11.3 | 0.13 | 0.36 | 0.36 | 92 | 1006.7 |
| 20260506133450 | 15 | 228 | 4.8 | 11.3 | 0.13 | 0.33 | 0.33 | 92 | 1006.9 |
| 20260506132948 | 15 | 248 | 3.2 | 9.7 | 0.13 | 0.30 | 0.30 | 92 | 1007.0 |
| 20260506132447 | 15 | 273 | 3.2 | 9.7 | 0.15 | 0.30 | 0.30 | 92 | 1006.9 |
| 20260506131947 | 15 | 303 | 0.0 | 4.8 | 0.15 | 0.28 | 0.28 | 92 | 1006.9 |
| 20260506131438 | 15 | 267 | 1.6 | 4.8 | 0.18 | 0.28 | 0.28 | 92 | 1006.8 |
| 20260506130934 | 15 | 235 | 1.6 | 6.4 | 0.18 | 0.28 | 0.28 | 92 | 1006.9 |
| 20260506130431 | 15 | 296 | 1.6 | 8.0 | 0.20 | 0.28 | 0.28 | 92 | 1006.9 |
| 20260506125928 | 15 | 261 | 1.6 | 8.0 | 0.23 | 0.28 | 0.28 | 92 | 1006.9 |
| 20260506125426 | 15 | 240 | 3.2 | 6.4 | 0.20 | 0.25 | 0.25 | 92 | 1007.0 |
| 20260506124926 | 15 | 300 | 0.0 | 3.2 | 0.20 | 0.25 | 0.25 | 92 | 1006.9 |
| 20260506124650 | 15 | 184 | 0.0 | 4.8 | 0.18 | 0.23 | 0.23 | 92 | 1007.0 |
| 20260506124150 | 15 | 232 | 1.6 | 4.8 | 0.15 | 0.20 | 0.23 | 92 | 1007.2 |
| 20260506123417 | 15 | 223 | 0.0 | 4.8 | 0.15 | 0.20 | 0.20 | 92 | 1007.2 |
| 20260506122918 | 15 | 252 | 0.0 | 4.8 | 0.10 | 0.15 | 0.18 | 93 | 1007.3 |
| 20260506122415 | 15 | 20 | 0.0 | 0.0 | 0.13 | 0.15 | 0.15 | 93 | 1007.4 |
| 20260506121918 | 15 | 20 | 0.0 | 0.0 | 0.10 | 0.13 | 0.13 | 93 | 1007.4 |
| 20260506121415 | 15 | 20 | 0.0 | 0.0 | 0.08 | 0.10 | 0.10 | 92 | 1007.4 |
| 20260506121132 | 15 | 20 | 0.0 | 1.6 | 0.10 | 0.10 | 0.10 | 92 | 1007.6 |
| 20260506120410 | 15 | 20 | 0.0 | 3.2 | 0.08 | 0.08 | 0.08 | 92 | 1007.2 |
| 20260506115903 | 15 | 20 | 0.0 | 3.2 | 0.05 | 0.05 | 0.08 | 91 | 1007.2 |
| 20260506115404 | 15 | 20 | 0.0 | 3.2 | 0.05 | 0.05 | 0.05 | 91 | 1007.2 |
| 20260506114902 | 15 | 22 | 0.0 | 3.2 | 0.05 | 0.05 | 0.05 | 90 | 1007.1 |
| 20260506114403 | 15 | 61 | 0.0 | 3.2 | 0.05 | 0.05 | 0.05 | 89 | 1006.9 |
| 20260506113858 | 15 | 61 | 0.0 | 3.2 | 0.05 | 0.05 | 0.05 | 87 | 1006.7 |
| 20260506113356 | 15 | 61 | 0.0 | 3.2 | 0.05 | 0.05 | 0.05 | 86 | 1006.8 |
| 20260506112855 | 16 | 199 | 0.0 | 6.4 | 0.05 | 0.05 | 0.05 | 83 | 1006.8 |
| 20260506112630 | 16 | 194 | 0.0 | 6.4 | 0.03 | 0.03 | 0.03 | 81 | 1006.8 |
| 20260506111858 | 16 | 232 | 0.0 | 9.7 | 0.03 | 0.03 | 0.03 | 81 | 1006.8 |
| 20260506111356 | 16 | 266 | 0.0 | 9.7 | 0.03 | 0.03 | 0.03 | 79 | 1006.7 |
| 20260506110856 | 17 | 172 | 1.6 | 9.7 | 0.00 | 0.00 | 0.00 | 77 | 1006.7 |
| 20260506110355 | 17 | 221 | 1.6 | 8.0 | 0.00 | 0.00 | 0.00 | 74 | 1006.6 |
| 20260506105858 | 17 | 235 | 3.2 | 11.3 | 0.00 | 0.00 | 0.00 | 73 | 1006.7 |
| 20260506105356 | 17 | 267 | 4.8 | 14.5 | 0.00 | 0.00 | 0.00 | 71 | 1006.7 |
| 20260506104857 | 17 | 191 | 4.8 | 14.5 | 0.00 | 0.00 | 0.00 | 70 | 1006.5 |
| 20260506104355 | 17 | 278 | 1.6 | 9.7 | 0.00 | 0.00 | 0.00 | 70 | 1006.4 |
| 20260506104346 | 17 | 271 | 1.6 | 9.7 | 0.00 | 0.00 | 0.00 | 70 | 1006.4 |
| 20260506103347 | 17 | 261 | 1.6 | 6.4 | 0.00 | 0.00 | 0.00 | 69 | 1006.2 |
| 20260506102843 | 17 | 248 | 3.2 | 6.4 | 0.00 | 0.00 | 0.00 | 69 | 1006.3 |
| 20260506102340 | 18 | 240 | 0.0 | 6.4 | 0.00 | 0.00 | 0.00 | 69 | 1006.1 |
| 20260506101837 | 18 | 234 | 1.6 | 16.1 | 0.00 | 0.00 | 0.00 | 69 | 1006.1 |
| 20260506101604 | 17 | 218 | 3.2 | 16.1 | 0.00 | 0.00 | 0.00 | 69 | 1005.9 |
| 20260506101100 | 17 | 159 | 3.2 | 9.7 | 0.00 | 0.00 | 0.00 | 70 | 1005.8 |
| 20260506100330 | 17 | 134 | 3.2 | 11.3 | 0.00 | 0.00 | 0.00 | 69 | 1005.8 |
| 20260506095831 | 17 | 178 | 4.8 | 11.3 | 0.00 | 0.00 | 0.00 | 69 | 1006.0 |
| 20260506095325 | 17 | 175 | 3.2 | 6.4 | 0.00 | 0.00 | 0.00 | 68 | 1005.9 |
| 20260506094826 | 18 | 159 | 3.2 | 6.4 | 0.00 | 0.00 | 0.00 | 68 | 1006.0 |
| 20260506094816 | 18 | 165 | 0.0 | 6.4 | 0.00 | 0.00 | 0.00 | 67 | 1006.1 |
| 20260506093826 | 18 | 201 | 0.0 | 9.7 | 0.00 | 0.00 | 0.00 | 66 | 1006.0 |
| 20260506093815 | 18 | 188 | 1.6 | 9.7 | 0.00 | 0.00 | 0.00 | 65 | 1006.1 |
| 20260506092820 | 18 | 202 | 3.2 | 8.0 | 0.00 | 0.00 | 0.00 | 65 | 1006.1 |
| 20260506092321 | 18 | 269 | 0.0 | 6.4 | 0.00 | 0.00 | 0.00 | 64 | 1006.2 |
| 20260506091821 | 18 | 269 | 1.6 | 14.5 | 0.00 | 0.00 | 0.00 | 64 | 1006.3 |
| 20260506091545 | 18 | 204 | 6.4 | 14.5 | 0.00 | 0.00 | 0.00 | 63 | 1006.2 |
| 20260506090820 | 18 | 253 | 4.8 | 11.3 | 0.00 | 0.00 | 0.00 | 63 | 1006.3 |
| 20260506090317 | 18 | 271 | 3.2 | 6.4 | 0.00 | 0.00 | 0.00 | 63 | 1006.3 |
| 20260506085816 | 18 | 231 | 1.6 | 8.0 | 0.00 | 0.00 | 0.00 | 63 | 1006.3 |
| 20260506085312 | 18 | 222 | 4.8 | 8.0 | 0.00 | 0.00 | 0.00 | 63 | 1006.2 |
| 20260506084812 | 18 | 224 | 3.2 | 8.0 | 0.00 | 0.00 | 0.00 | 63 | 1006.3 |
| 20260506084313 | 18 | 213 | 1.6 | 6.4 | 0.00 | 0.00 | 0.00 | 63 | 1006.3 |
| 20260506084039 | 18 | 217 | 3.2 | 11.3 | 0.00 | 0.00 | 0.00 | 63 | 1006.2 |
| 20260506083307 | 18 | 247 | 1.6 | 11.3 | 0.00 | 0.00 | 0.00 | 62 | 1006.2 |
| 20260506082806 | 18 | 229 | 1.6 | 11.3 | 0.00 | 0.00 | 0.00 | 62 | 1006.2 |
| 20260506082312 | 18 | 224 | 4.8 | 11.3 | 0.00 | 0.00 | 0.00 | 62 | 1006.3 |
| 20260506081807 | 18 | 214 | 3.2 | 8.0 | 0.00 | 0.00 | 0.00 | 62 | 1006.2 |
| 20260506081306 | 18 | 190 | 1.6 | 8.0 | 0.00 | 0.00 | 0.00 | 62 | 1006.2 |
| 20260506080807 | 18 | 243 | 0.0 | 6.4 | 0.00 | 0.00 | 0.00 | 63 | 1006.3 |
| 20260506080306 | 17 | 196 | 0.0 | 6.4 | 0.00 | 0.00 | 0.00 | 63 | 1006.3 |